Regional Weather Roundup
Issued by NWS

Home | Current Version | Previous Version | Graphics & Text | Print | Product List | Glossary On
Versions: 1 2 3 4 5 6 7 8 9 10 11 12 13 14 15 16 17 18 19 20 21 22 23 24 25 26 27 28 29 30 31 32 33 34 35 36 37 38 39 40 41 42 43 44 45 46 47 48 49 50
000
ASUS45 KPSR 222100
RWRAZ

PRELIMINARY ARIZONA REGIONAL HOURLY WEATHER ROUNDUP
NATIONAL WEATHER SERVICE PHOENIX AZ
200 PM MST TUE APR 22 2014

NOTE: FAIR INDICATES FEW OR NO CLOUDS BELOW 12,000 FEET WITH NO
SIGNIFICANT WEATHER AND/OR OBSTRUCTIONS TO VISIBILITY.

AZZ001>003-036-222200-
NORTHWEST ARIZONA

CITY           SKY/WX    TMP DP  RH WIND       PRES   REMARKS
KINGMAN        CLOUDY    82  26  13 SW33G45   29.81F
$$

AZZ004>008-015-016-018-222200-
NORTH CENTRAL ARIZONA

CITY           SKY/WX    TMP DP  RH WIND       PRES   REMARKS
GRAND CANYON   CLOUDY    68  26  20 SW31G44   29.95F
WILLIAMS       PTSUNNY   66  25  20 S29G36    30.04F
PRESCOTT       MOSUNNY   75  29  18 SW22G38   29.94F
FLAGSTAFF      MOSUNNY   67  28  23 SW24G41   30.01F
PAYSON         MOSUNNY   77  28  16 SW10G25   29.99F
PAGE           CLOUDY    79  25  13 SW13G23   29.77F
$$

AZZ009>014-017-222200-
NORTHEAST ARIZONA

CITY           SKY/WX    TMP DP  RH WIND       PRES   REMARKS
WINSLOW        NOT AVBL
SAINT JOHNS    PTSUNNY   79  21  11 SW21G31   29.94F
WINDOW ROCK    PTSUNNY   77  21  12 SW21G37   29.99F
SHOW LOW       MOSUNNY   73  23  15 SW28G37   30.03F
$$

AZZ023-222200-
GREATER PHOENIX AREA

CITY           SKY/WX    TMP DP  RH WIND       PRES   REMARKS
PHOENIX        PTSUNNY   94  34  12 SW13      29.74F
GLENDALE       PTSUNNY   93  36  13 SW7G20    29.77F
DEER VALLEY    MOSUNNY   89  32  13 SW10G18   29.77F
SCOTTSDALE     MOSUNNY   91  35  13 SW10G16   29.78F
MESA-GATEWAY   MOSUNNY   93  34  12 SW7G20    29.78F
CHANDLER       PTSUNNY   95  34  11 S18G25    29.76F
$$

AZZ027-028-222200-
SOUTHWEST MARICOPA COUNTY AND PINAL COUNTY

CITY           SKY/WX    TMP DP  RH WIND       PRES   REMARKS
CASA GRANDE    SUNNY     93  36  13 SW17G26   29.77F
$$

AZZ503-504-507>509-222200-
SOUTHEAST ARIZONA

CITY           SKY/WX    TMP DP  RH WIND       PRES   REMARKS
TUCSON         SUNNY     93  20   7 SW20G26   29.85F
DAVIS-MONTHAN  SUNNY     91  28  10 W10G24    29.84F
NOGALES        SUNNY     86  23  10 S18G31    29.94F
SIERRA VISTA   PTSUNNY   84  25  11 S9G20     29.96F
SAFFORD        MOSUNNY   93  22   7 SW14G31   29.82F
$$

AZZ020-021-025-026-031-222200-
SOUTHWEST ARIZONA

CITY           SKY/WX    TMP DP  RH WIND       PRES   REMARKS
YUMA           PTSUNNY   93  39  15 W10       29.75F
$$

CAZ031-033-041-043-047-048-061-222200-
SOUTHERN CALIFORNIA

CITY           SKY/WX    TMP DP  RH WIND       PRES   REMARKS
DOWNTOWN L.A.  SUNNY     68  49  50 VRB3      29.94F
L.A. AIRPORT   MOSUNNY   67  48  50 W13       29.96F
SAN DIEGO      PTSUNNY   68  52  56 SW14      29.98S
BURBANK        MOSUNNY   71  48  43 SE9       29.92F
ONTARIO        MOSUNNY   71  47  42 W13G18    29.93F
RIVERSIDE      MOSUNNY   71  49  45 VRB7      29.93F
PALM SPRINGS   MOSUNNY   87  22   9 NW15G25   29.77F
EL CENTRO NAS  PTSUNNY   92  30  11 SW24      29.75F
IMPERIAL       MOSUNNY   91  34  13 W21G29    29.74F
BLYTHE         CLOUDY    92  21   7 SW28G37   29.74F
$$

NVZ020-UTZ003-222200-
SOUTHERN NEVADA-UTAH

CITY           SKY/WX    TMP DP  RH WIND       PRES   REMARKS
LAS VEGAS      NOT AVBL
SALT LAKE CITY CLOUDY    74  28  18 S21G36    29.54F
$$

NMZ009-TXZ055-222200-
NEW MEXICO-WEST TEXAS

CITY           SKY/WX    TMP DP  RH WIND       PRES   REMARKS
ALBUQUERQUE    MOSUNNY   80  29  15 S21G33    29.97F
EL PASO        MOSUNNY   88  34  14 S20G30    29.93F
$$


........................KEY........................
SKY/WX - SKY CONDITION/WEATHER
TMP    - TEMPERATURE IN FAHRENHEIT
DP     - DEW POINT IN FAHRENHEIT
RH     - RELATIVE HUMIDITY IN PERCENT
WIND   - DIRECTION AND SPEED IN MILES PER HOUR (MPH)
VRB    - VARIABLE WIND DIRECTION
PRES   - MEAN SEA LEVEL PRESSURE IN INCHES OF MERCURY
         F - FALLING PRESSURE   R - RISING PRESSURE
         S - STEADY PRESSURE
VSB    - VISIBILITY IN MILES
HX     - HEAT INDEX IN FAHRENHEIT
WCI    - WIND CHILL INDEX IN FAHRENHEIT
TC     - TEMPERATURE IN CELSIUS WHICH IS ALSO KNOWN AS
         TEMPERATURE IN CENTIGRADE
AFB    - AIR FORCE BASE
         LUKE AFB IS LUKE AIR FORCE BASE
         DAVIS-MONTHAN IS DAVIS-MONTHAN AIR FORCE BASE
NAS    - NAVAL AIR STATION
         EL CENTRO NAS IS EL CENTRO NAVAL AIR STATION
N/A    - NOT AVAILABLE



USA.gov is the U.S. government's official web portal to all federal, state and local government web resources and services.